Location: ???????
(55.5931°N, 39.3286°E)
Time: 01:53:56
(UTC+00:00)

Cosmos 2278 Rocket - Pass Details

Date: 14 April 2024
Orbit: 839 x 846 km, 71.0° (Epoch: 28 May)

Event Time Altitude Azimuth Distance (km) Brightness Sun altitude
Rises 00:10:38 0° 325° (NW) 3,420 5.5 -16.2°
Reaches altitude 10° 00:13:06 10° 322° (NW) 2,482 4.7 -15.9°
Maximum altitude 00:18:43 63° 243° (WSW) 946 2.2 -15.4°
Drops below altitude 10° 00:24:18 10° 164° (SSE) 2,466 4.4 -14.8°
Sets 00:26:45 0° 161° (SSE) 3,396 5.1 -14.5°
